Weather History for North Island, CA

Change the Weather History Date:

Thursday, December 6, 2012

  Actual Average Record
Temperature  
Mean Temperature 64 °F -  
Max Temperature 69 °F 62 °F 78 °F (2008)
Min Temperature 60 °F 47 °F 43 °F (2011)
Growing Degree Days 14 (Base 50)    
Moisture  
Dew Point 55 °F    
Average Humidity 73    
Maximum Humidity 83    
Minimum Humidity 63    
Precipitation  
Precipitation 0.00 in - - ()
Sea Level Pressure  
Sea Level Pressure 29.94 in    
Wind  
Wind Speed 3 mph (NNW)    
Max Wind Speed 9 mph    
Max Gust Speed -    
Visibility 8 miles    
Events      
Averages and records for this station are not official NWS values.
T = Trace of Precipitation, MM = Missing Value Source: NWS Daily Summary

Daily Weather History Graph

Daily Weather History Graph

Search for Another Location

Airport:

Trip Planner

Search our weather history database for the weather conditions in past years. The results will help you decide how hot, cold, wet, or windy it might be!

Date:

Astronomy

Dec. 06, 2012 Rise Set
Actual Time 6:37 AM PST 4:42 PM PST
Civil Twilight 6:10 AM PST 5:09 PM PST
Nautical Twilight 5:39 AM PST 5:40 PM PST
Astronomical Twilight 5:10 AM PST 6:10 PM PST
Moon No Moon Rise 11:51 AM PST (12/6)
Length of Visible Light 10h 59m
Length of Day
10h 05m
Waning Gibbous, 48% of the Moon is Illuminated
Dec 6
Waning Gibbous
Dec 13
New
Dec 19
First Quarter
Dec 28
Full
Jan 4
Last Quarter

Hourly Weather History & Observations

Time (PST) Temp. Dew Point Humidity Pressure Visibility Wind Dir Wind Speed Gust Speed Precip Events Conditions
12:52 AM 62.1 °F 53.1 °F 72% 30.01 in 10.0 mi Calm Calm - N/A   Mostly Cloudy
1:52 AM 62.1 °F 53.1 °F 72% 30.01 in 10.0 mi Calm Calm - N/A   Mostly Cloudy
2:52 AM 62.1 °F 53.1 °F 72% 29.99 in 8.0 mi Calm Calm - N/A   Mostly Cloudy
3:52 AM 62.1 °F 53.1 °F 72% 29.97 in 8.0 mi East 4.6 mph - N/A   Overcast
4:52 AM 61.0 °F 53.1 °F 75% 29.97 in 8.0 mi ESE 4.6 mph - N/A   Overcast
5:52 AM 61.0 °F 54.0 °F 78% 29.97 in 8.0 mi ESE 3.5 mph - N/A   Overcast
6:22 AM 60.8 °F 53.6 °F 77% 29.98 in 5.0 mi ESE 3.5 mph - N/A   Overcast
6:52 AM 61.0 °F 54.0 °F 78% 29.98 in 5.0 mi Calm Calm - N/A   Overcast
7:52 AM 63.0 °F 55.0 °F 75% 29.99 in 6.0 mi ESE 3.5 mph - N/A   Haze
8:52 AM 64.0 °F 55.9 °F 75% 29.99 in 7.0 mi Variable 3.5 mph - N/A   Mostly Cloudy
9:52 AM 66.9 °F 55.0 °F 66% 29.99 in 7.0 mi Calm Calm - N/A   Mostly Cloudy
10:52 AM 66.9 °F 55.9 °F 68% 29.97 in 9.0 mi Variable 3.5 mph - N/A   Mostly Cloudy
11:52 AM 69.1 °F 55.9 °F 63% 29.94 in 10.0 mi NW 3.5 mph - N/A   Mostly Cloudy
12:52 PM 68.0 °F 55.9 °F 65% 29.90 in 10.0 mi WNW 4.6 mph - N/A   Mostly Cloudy
1:52 PM 69.1 °F 55.9 °F 63% 29.87 in 10.0 mi West 6.9 mph - N/A   Mostly Cloudy
2:52 PM 66.9 °F 55.0 °F 66% 29.87 in 10.0 mi WNW 9.2 mph - N/A   Scattered Clouds
3:52 PM 66.0 °F 55.0 °F 68% 29.88 in 10.0 mi NW 9.2 mph - N/A   Scattered Clouds
4:52 PM 64.0 °F 55.0 °F 73% 29.88 in 10.0 mi NW 8.1 mph - N/A   Scattered Clouds
5:52 PM 63.0 °F 55.0 °F 75% 29.89 in 10.0 mi NW 4.6 mph - N/A   Scattered Clouds
6:52 PM 62.1 °F 55.0 °F 78% 29.91 in 10.0 mi Calm Calm - N/A   Scattered Clouds
7:52 PM 63.0 °F 55.9 °F 78% 29.93 in 10.0 mi NNW 4.6 mph - N/A   Mostly Cloudy
8:52 PM 63.0 °F 55.9 °F 78% 29.93 in 10.0 mi North 5.8 mph - N/A   Mostly Cloudy
9:52 PM 62.1 °F 55.9 °F 80% 29.93 in 8.0 mi Calm Calm - N/A   Scattered Clouds
10:52 PM 61.0 °F 55.0 °F 81% 29.93 in 7.0 mi North 4.6 mph - N/A   Scattered Clouds
11:52 PM 60.1 °F 55.0 °F 83% 29.93 in 7.0 mi North 3.5 mph - N/A   Scattered Clouds